Location: Nassau
(25.0830°N, 77.3500°W)
Time: 22:01:11
(UTC-04:00)

ISS - All Passes

Search period start: 01 July 2016 00:00
Search period end: 11 July 2016 00:00
Orbit: 402 x 404 km, 51.6° (Epoch: 02 July)

Date Brightness Start Highest point End Pass type
(mag) Time Alt. Az. Time Alt. Az. Time Alt. Az.
01 Jul - 05:55:58 10° SE 05:56:43 11° SE 05:57:29 10° ESE visible
01 Jul - 07:29:52 10° WSW 07:32:51 34° NW 07:35:52 10° NNE daylight
01 Jul - 15:40:06 10° NNW 15:43:16 48° NE 15:46:25 10° ESE daylight
02 Jul - 06:36:51 10° SW 06:40:05 89° W 06:43:21 10° NE daylight
02 Jul - 14:47:52 10° N 14:50:26 21° NE 14:53:00 10° E daylight
02 Jul - 16:24:24 10° W 16:26:44 18° SW 16:29:03 10° S daylight
03 Jul - 05:44:28 10° SSW 05:47:24 33° SE 05:50:22 10° ENE visible
03 Jul - 07:22:15 10° WNW 07:23:53 13° NW 07:25:32 10° N daylight
03 Jul - 13:56:48 10° NNE 13:57:30 10° NE 13:58:11 10° NE daylight
03 Jul - 15:30:57 10° NW 15:34:05 45° SW 15:37:12 10° SSE daylight
04 Jul - 04:53:01 10° SSE 04:54:46 14° SE 04:56:31 10° E visible
04 Jul - 06:28:10 10° WSW 06:30:59 27° NW 06:33:48 10° NNE daylight
04 Jul - 14:38:06 10° NW 14:41:20 65° NE 14:44:34 10° SE daylight
05 Jul - 05:34:55 10° SW 05:38:09 67° NW 05:41:22 10° NE visible
05 Jul - 13:45:42 10° NNW 13:48:30 26° NE 13:51:18 10° ESE daylight
05 Jul - 15:22:53 10° W 15:24:43 14° SW 15:26:33 10° SSW daylight
06 Jul - 04:42:18 10° SSW 04:45:23 43° SE 04:48:30 10° NE visible
06 Jul - 06:21:09 10° NW 06:21:58 11° NW 06:22:47 10° NNW daylight
06 Jul - 12:53:59 10° NNE 12:55:33 13° NE 12:57:08 10° ENE daylight
06 Jul - 14:29:04 10° WNW 14:32:03 34° SW 14:35:02 10° SSE daylight
07 Jul - 03:50:26 10° S 03:52:42 18° SE 03:54:58 10° E visible
07 Jul - 05:26:24 10° W 05:28:58 21° NW 05:31:34 10° N visible
07 Jul - 13:36:02 10° NW 13:39:18 87° NE 13:42:33 10° SE daylight
08 Jul - 04:32:56 10° SW 04:36:05 49° NW 04:39:15 10° NNE visible
08 Jul - 12:43:28 10° NNW 12:46:27 33° NE 12:49:26 10° ESE daylight
08 Jul - 14:21:37 10° WSW 14:22:35 11° SW 14:23:34 10° SW daylight
09 Jul - 03:40:05 10° SSW 03:43:16 59° SE 03:46:29 10° NE visible
09 Jul - 11:51:26 10° N 11:53:30 16° NE 11:55:34 10° E daylight
09 Jul - 13:27:07 10° WNW 13:29:54 26° SW 13:32:40 10° S daylight
10 Jul - 02:47:54 10° S 02:50:31 22° SE 02:53:09 10° ENE visible
10 Jul - 04:24:36 10° W 04:26:52 17° NW 04:29:09 10° N visible
10 Jul - 12:33:54 10° NW 12:37:07 70° SW 12:40:21 10° SE daylight
